Вернуться в каталог

STARLINK-31406

АктивенСвязьVLEO
NORAD 59017·PAYLOAD·🇺🇸 United States

Запущен Feb 23, 2024 с Vandenberg Space Force Base

Loading…

Ближайшие Пролёты (ближайшие 24 часа)

TLE

СвежийSource: CelesTrak SupGP

Эпоха: Sep 15, 2026, 02:34 UTC

1 59017C 24036V   26258.10743056 -.00015747  00000+0 -46517-3 0  2585
2 59017  53.1586 260.8850 0001372  90.8371 115.7938 15.34404431    16

Отслеживайте STARLINK-31406 в реальном времени с AllMySat

Download on the App Store